Weather History for KAPA - December, 2011

Change the Weather History Date:

Friday, December 9, 2011

  Actual Average Record
Temperature  
Mean Temperature 25 °F -  
Max Temperature 38 °F 43 °F 64 °F (1996)
Min Temperature 11 °F 19 °F -4 °F (2013)
Degree Days  
Heating Degree Days 40    
Month to date heating degree days 401  
Moisture  
Dew Point 15 °F    
Average Humidity 72    
Maximum Humidity 100    
Minimum Humidity 44    
Precipitation  
Precipitation 0.00 in - - ()
Month to date precipitation 0.09  
Sea Level Pressure  
Sea Level Pressure 30.34 in    
Wind  
Wind Speed 4 mph (South)    
Max Wind Speed 15 mph    
Max Gust Speed 21 mph    
Visibility 7 miles    
Events Fog    
Averages and records for this station are not official NWS values.
T = Trace of Precipitation, MM = Missing Value Source: NWS Daily Summary

Daily Weather History Graph

Daily Weather History Graph

Search for Another Location

Airport or City:

Trip Planner

Search our weather history database for the weather conditions in past years. The results will help you decide how hot, cold, wet, or windy it might be!

Date:

Astronomy

Dec. 09, 2011 Rise Set
Actual Time 7:08 AM MST 4:35 PM MST
Civil Twilight 6:37 AM MST 5:05 PM MST
Nautical Twilight 6:04 AM MST 5:39 PM MST
Astronomical Twilight 5:31 AM MST 6:11 PM MST
Moon 4:00 PM MST (12/9) 6:17 AM MST (12/9)
Length of Visible Light 10h 27m
Length of Day
9h 27m
Waxing Gibbous, 99% of the Moon is Illuminated
Dec 9
Waxing Gibbous
Dec 10
Full
Dec 17
Last Quarter
Dec 24
New
Dec 31
First Quarter

Hourly Weather History & Observations

Time (MST) Temp. Windchill Dew Point Humidity Pressure Visibility Wind Dir Wind Speed Gust Speed Precip Events Conditions
12:53 AM 19.0 °F - 10.9 °F 71% 30.20 in 10.0 mi Calm Calm - N/A   Clear
1:53 AM 17.1 °F 10.0 °F 12.0 °F 81% 30.24 in 10.0 mi NW 4.6 mph - N/A   Partly Cloudy
3:53 AM 17.1 °F 10.0 °F 12.9 °F 84% 30.29 in 10.0 mi East 4.6 mph - N/A   Scattered Clouds
4:53 AM 15.1 °F - 10.9 °F 84% 30.33 in 10.0 mi Calm Calm - N/A   Partly Cloudy
5:27 AM 15.8 °F - 14.0 °F 93% 30.16 in 8.0 mi Calm Calm - N/A   Partly Cloudy
5:53 AM 12.0 °F 1.5 °F 10.0 °F 92% 30.36 in 9.0 mi SW 6.9 mph - N/A   Partly Cloudy
6:17 AM 15.8 °F 10.2 °F 12.2 °F 86% 30.17 in 0.1 mi WNW 3.5 mph - N/A Fog Light Freezing Fog
6:53 AM 12.9 °F 3.8 °F 12.0 °F 96% 30.40 in 0.1 mi South 5.8 mph - N/A Fog Light Freezing Fog
7:07 AM 14.0 °F 8.2 °F 12.2 °F 93% 30.19 in 3.0 mi SSE 3.5 mph - N/A   Mist
7:14 AM 14.0 °F - 10.4 °F 86% 30.19 in 10.0 mi Calm Calm - N/A   Scattered Clouds
7:53 AM 15.1 °F - 10.9 °F 84% 30.41 in 10.0 mi Calm Calm - N/A   Partly Cloudy
8:53 AM 18.0 °F 9.8 °F 12.0 °F 78% 30.42 in 10.0 mi SSE 5.8 mph - N/A   Partly Cloudy
9:53 AM 26.1 °F 20.5 °F 14.0 °F 60% 30.41 in 10.0 mi ESE 4.6 mph - N/A   Partly Cloudy
10:53 AM 32.0 °F 23.0 °F 16.0 °F 52% 30.39 in 10.0 mi South 11.5 mph - N/A   Partly Cloudy
11:53 AM 34.0 °F 26.6 °F 17.1 °F 50% 30.34 in 10.0 mi SSE 9.2 mph - N/A   Partly Cloudy
12:53 PM 37.0 °F 28.5 °F 18.0 °F 46% 30.30 in 10.0 mi SSE 13.8 mph - N/A   Partly Cloudy
2:53 PM 37.9 °F 30.5 °F 18.0 °F 45% 30.28 in 10.0 mi SSE 11.5 mph - N/A   Partly Cloudy
3:53 PM 34.0 °F 28.0 °F 18.0 °F 52% 30.32 in 10.0 mi SSE 6.9 mph - N/A   Partly Cloudy
4:53 PM 28.0 °F 20.0 °F 21.9 °F 78% 30.38 in 6.0 mi West 8.1 mph - N/A   Haze
5:53 PM 25.0 °F 16.3 °F 19.9 °F 81% 30.43 in 7.0 mi NW 8.1 mph - N/A   Partly Cloudy
6:53 PM 25.0 °F 18.1 °F 21.0 °F 85% 30.45 in 5.0 mi NW 5.8 mph - N/A   Clear
7:53 PM 19.9 °F 13.4 °F 17.1 °F 89% 30.47 in 4.0 mi SW 4.6 mph - N/A   Clear
8:53 PM 21.0 °F 16.2 °F 17.1 °F 85% 30.45 in 6.0 mi South 3.5 mph - N/A   Clear
9:53 PM 19.9 °F 12.1 °F 16.0 °F 85% 30.42 in 6.0 mi SSW 5.8 mph - N/A   Clear
10:53 PM 19.0 °F 8.2 °F 15.1 °F 85% 30.41 in 5.0 mi SSW 9.2 mph - N/A   Clear
11:11 PM 19.4 °F - 15.8 °F 86% 30.27 in 6.0 mi Calm Calm - N/A   Partly Cloudy
11:53 PM 17.1 °F - 12.9 °F 84% 30.43 in 5.0 mi Calm Calm - N/A   Partly Cloudy